Hourly Data Report for April 13, 2017

MIRAMICHI RCS
NEW BRUNSWICK

47°00'34.000" N
65°27'54.000" W
33.00 m
8100989
71744
ACQ

Download Data

Hourly Data (April 2017)
Hourly Data Report for April 13, 2017
TIME
LST
Temp Definition
°C
Dew Point Definition
°C
Rel Hum Definition
%
Precip. Amount Definition
mm

Wind Dir Definition
10's deg

Wind Spd Definition
km/h
Visibility Definition
km
Stn Press Definition
kPa
Hmdx Definition


Wind Chill Definition


Weather Definition


00:00 1.7 1.3 97 0.3 24 4   101.20     LegendNANA
01:00 1.8 1.5 98 0.2 24 5   101.12     LegendNANA
02:00 2.0 1.7 97 0.0 26 9   101.10     LegendNANA
03:00 1.8 1.5 98 0.0 23 6   101.08     LegendNANA
04:00 2.1 1.8 98 0.0 22 11   101.05     LegendNANA
05:00 2.6 2.0 96 0.0 23 15   101.03     LegendNANA
06:00 2.9 2.1 94 0.0 23 15   101.03     LegendNANA
07:00 3.7 2.5 92 0.0 24 14   101.05     LegendNANA
08:00 5.1 3.3 88 0.0 25 17   101.06     LegendNANA
09:00 6.0 3.1 82 0.0 26 17   101.09     LegendNANA
10:00 6.2 2.9 79 0.0 26 16   101.15     LegendNANA
11:00 7.0 3.0 75 0.0 25 20   101.16     LegendNANA
12:00 7.7 2.3 68 0.0 25 19   101.16     LegendNANA
13:00 8.8 2.0 62 0.0 25 20   101.17     LegendNANA
14:00 8.0 2.9 70 0.0 30 11   101.26     LegendNANA
15:00 7.8 2.9 71 0.2 27 21   101.27     LegendNANA
16:00 8.0 2.7 69 0.0 28 16   101.33     LegendNANA
17:00 7.7 0.9 62 0.0 31 13   101.40     LegendNANA
18:00 7.2 -0.2 59 0.0 30 12   101.46     LegendNANA
19:00 6.4 -0.4 62 0.0 30 10   101.53     LegendNANA
20:00 4.2 -0.2 73 0.0 29 8   101.62     LegendNANA
21:00 3.4 -0.4 76 0.0 27 7   101.68     LegendNANA
22:00 3.4 -0.1 78 0.0 27 10   101.69     LegendNANA
23:00 2.3 -0.4 82 0.0 29 9   101.67     LegendNANA

Notes on Data Quality.

Legend

  • E = Estimated
  • M = Missing
  • NA = Not Available*
  • [empty] = Indicates an unobserved value
Date modified: